Big Rapids, MI

8:57 AM EST on December 14, 2019 (GMT -0500)
Roben-Hood

Weather History for KRQB - May, 2019

Change the Weather History Date:

Friday, May 3, 2019

  Actual Average Record
Temperature  
Mean Temperature 49 °F -  
Max Temperature 55 °F 59 °F 83 °F (1980)
Min Temperature 43 °F 35 °F 23 °F (1986)
Degree Days  
Heating Degree Days 16    
Moisture  
Dew Point 41 °F    
Average Humidity 77    
Maximum Humidity 98    
Minimum Humidity 51    
Precipitation  
Precipitation 0.00 in - - ()
Sea Level Pressure  
Sea Level Pressure 30.06 in    
Wind  
Wind Speed 4 mph (NNE)    
Max Wind Speed 10 mph    
Max Gust Speed 17 mph    
Visibility 9 miles    
Events      
Averages and records for this station are not official NWS values.
T = Trace of Precipitation, MM = Missing Value Source: NWS Daily Summary

Daily Weather History Graph

Daily Weather History Graph

Search for Another Location

Airport or City:

Astronomy

May. 03, 2019 Rise Set
Actual Time 6:31 AM EDT 8:46 PM EDT
Civil Twilight 6:00 AM EDT 9:18 PM EDT
Nautical Twilight 5:20 AM EDT 9:57 PM EDT
Astronomical Twilight 4:37 AM EDT 10:41 PM EDT
Moon 6:18 AM EDT (5/3) 7:29 PM EDT (5/3)
Length of Visible Light 15h 18m
Length of Day
14h 15m
Waning Crescent, 2% of the Moon is Illuminated
May 3
Waning Crescent
May 4
New
May 11
First Quarter
May 18
Full
May 26
Last Quarter

Hourly Weather History & Observations

Time (EDT) Temp. Windchill Dew Point Humidity Pressure Visibility Wind Dir Wind Speed Gust Speed Precip Events Conditions
12:15 AM 45.5 °F 44.2 °F 44.6 °F 97% 30.08 in 10.0 mi NE 3.5 mph - N/A   Overcast
12:16 AM 45.5 °F 44.2 °F 44.6 °F 97% 30.08 in 10.0 mi NE 3.5 mph - N/A   Overcast
12:35 AM 45.5 °F 44.2 °F 44.6 °F 97% 30.08 in 10.0 mi North 3.5 mph - N/A   Overcast
12:55 AM 45.5 °F - 44.6 °F 97% 30.09 in 10.0 mi Calm Calm - N/A   Overcast
1:15 AM 45.5 °F 44.2 °F 44.6 °F 97% 30.08 in 10.0 mi North 3.5 mph - N/A   Overcast
1:35 AM 45.5 °F - 44.6 °F 97% 30.08 in 10.0 mi Calm Calm - N/A   Overcast
1:36 AM 45.5 °F - 44.6 °F 97% 30.08 in 10.0 mi Calm Calm - N/A   Overcast
1:55 AM 45.5 °F - 44.6 °F 97% 30.08 in 10.0 mi Calm Calm - N/A   Overcast
2:15 AM 45.5 °F 44.2 °F 44.6 °F 97% 30.08 in 10.0 mi North 3.5 mph - N/A   Overcast
2:35 AM 45.5 °F 43.2 °F 44.6 °F 97% 30.08 in 10.0 mi North 4.6 mph - N/A   Overcast
2:36 AM 45.5 °F 43.2 °F 44.6 °F 97% 30.08 in 10.0 mi North 4.6 mph - N/A   Overcast
2:55 AM 45.5 °F 44.2 °F 44.6 °F 97% 30.07 in 10.0 mi NNE 3.5 mph - N/A   Overcast
3:15 AM 45.1 °F 42.8 °F 44.2 °F 97% 30.07 in 4.0 mi North 4.6 mph - N/A   Overcast
3:35 AM 45.1 °F 43.7 °F 44.4 °F 97% 30.07 in 3.0 mi North 3.5 mph - N/A   Overcast
3:36 AM 45.1 °F 43.7 °F 44.4 °F 97% 30.07 in 3.0 mi North 3.5 mph - N/A   Overcast
3:55 AM 45.0 °F 43.5 °F 44.2 °F 97% 30.07 in 4.0 mi NNE 3.5 mph - N/A   Overcast
3:56 AM 45.0 °F 43.5 °F 44.2 °F 97% 30.07 in 4.0 mi NNE 3.5 mph - N/A   Overcast
4:15 AM 44.8 °F 42.4 °F 44.1 °F 97% 30.07 in 5.0 mi North 4.6 mph - N/A   Overcast
4:16 AM 44.8 °F 42.4 °F 44.1 °F 97% 30.07 in 5.0 mi North 4.6 mph - N/A   Overcast
4:35 AM 44.6 °F 41.4 °F 43.7 °F 97% 30.07 in 7.0 mi North 5.8 mph - N/A   Overcast
4:55 AM 44.2 °F 41.8 °F 43.3 °F 97% 30.08 in 5.0 mi North 4.6 mph - N/A   Overcast
5:15 AM 44.1 °F 40.8 °F 43.3 °F 97% 30.08 in 5.0 mi North 5.8 mph - N/A   Overcast
5:16 AM 44.1 °F 40.8 °F 43.3 °F 97% 30.08 in 5.0 mi North 5.8 mph - N/A   Overcast
5:35 AM 44.1 °F 41.5 °F 43.2 °F 97% 30.08 in 5.0 mi NNE 4.6 mph - N/A   Overcast
5:55 AM 43.9 °F 41.3 °F 43.2 °F 97% 30.08 in 5.0 mi North 4.6 mph - N/A   Overcast
5:56 AM 43.9 °F 41.3 °F 43.2 °F 97% 30.08 in 5.0 mi North 4.6 mph - N/A   Overcast
6:15 AM 43.7 °F 42.1 °F 42.8 °F 97% 30.08 in 7.0 mi North 3.5 mph - N/A   Overcast
6:16 AM 43.7 °F 41.1 °F 42.8 °F 97% 30.08 in 7.0 mi North 4.6 mph - N/A   Overcast
6:35 AM 43.7 °F 41.1 °F 42.8 °F 97% 30.08 in 7.0 mi North 4.6 mph - N/A   Overcast
6:55 AM 43.5 °F 40.1 °F 42.8 °F 97% 30.08 in 7.0 mi North 5.8 mph - N/A   Overcast
6:56 AM 43.5 °F 40.9 °F 42.8 °F 97% 30.08 in 7.0 mi North 4.6 mph - N/A   Overcast
7:15 AM 43.3 °F 39.9 °F 42.8 °F 98% 30.08 in 5.0 mi North 5.8 mph - N/A   Overcast
7:35 AM 43.7 °F 39.7 °F 42.8 °F 97% 30.08 in 7.0 mi North 6.9 mph - N/A   Overcast
7:36 AM 43.5 °F 39.4 °F 42.8 °F 97% 30.08 in 7.0 mi North 6.9 mph - N/A   Overcast
7:55 AM 43.3 °F 39.9 °F 42.8 °F 98% 30.09 in 7.0 mi North 5.8 mph - N/A   Overcast
7:56 AM 43.5 °F 40.1 °F 42.8 °F 97% 30.09 in 7.0 mi North 5.8 mph - N/A   Overcast
8:15 AM 43.7 °F 40.3 °F 42.8 °F 97% 30.09 in 10.0 mi NNE 5.8 mph - N/A   Overcast
8:35 AM 43.5 °F 40.9 °F 42.6 °F 97% 30.11 in 10.0 mi North 4.6 mph - N/A   Overcast
8:36 AM 43.5 °F 40.1 °F 42.6 °F 97% 30.11 in 10.0 mi North 5.8 mph - N/A   Overcast
8:55 AM 43.5 °F 40.1 °F 42.4 °F 96% 30.11 in 10.0 mi North 5.8 mph - N/A   Overcast
8:56 AM 43.5 °F 40.1 °F 42.4 °F 96% 30.11 in 10.0 mi North 5.8 mph - N/A   Overcast
9:15 AM 44.1 °F 40.8 °F 42.8 °F 95% 30.10 in 10.0 mi NE 5.8 mph - N/A   Scattered Clouds
9:35 AM 45.3 °F 41.6 °F 42.6 °F 90% 30.10 in 10.0 mi NNE 6.9 mph - N/A   Scattered Clouds
9:55 AM 46.9 °F - 42.3 °F 84% 30.11 in 10.0 mi ENE 6.9 mph - N/A   Scattered Clouds
10:15 AM 48.4 °F - 42.1 °F 79% 30.10 in 10.0 mi NE 6.9 mph - N/A   Scattered Clouds
10:16 AM 48.4 °F - 42.1 °F 79% 30.10 in 10.0 mi NE 8.1 mph - N/A   Scattered Clouds
10:35 AM 49.5 °F - 41.2 °F 73% 30.10 in 10.0 mi ENE 8.1 mph - N/A   Scattered Clouds
10:55 AM 50.9 °F - 41.7 °F 71% 30.09 in 10.0 mi ENE 9.2 mph 17.3 mph N/A   Mostly Cloudy
11:15 AM 50.7 °F - 41.0 °F 69% 30.09 in 10.0 mi ENE 9.2 mph - N/A   Mostly Cloudy
11:16 AM 50.9 °F - 41.0 °F 69% 30.09 in 10.0 mi ENE 9.2 mph - N/A   Mostly Cloudy
11:35 AM 51.1 °F - 40.3 °F 67% 30.09 in 10.0 mi NE 8.1 mph - N/A   Mostly Cloudy
11:36 AM 51.1 °F - 40.3 °F 67% 30.09 in 10.0 mi ENE 9.2 mph - N/A   Mostly Cloudy
11:55 AM 51.4 °F - 41.2 °F 68% 30.09 in 10.0 mi East 10.4 mph - N/A   Scattered Clouds
12:15 PM 52.7 °F - 40.5 °F 63% 30.09 in 10.0 mi NNE 6.9 mph - N/A   Mostly Cloudy
12:35 PM 52.5 °F - 40.3 °F 63% 30.09 in 10.0 mi NE 6.9 mph - N/A   Overcast
12:36 PM 52.7 °F - 40.5 °F 63% 30.09 in 10.0 mi NE 5.8 mph - N/A   Overcast
12:55 PM 53.1 °F - 40.5 °F 62% 30.08 in 10.0 mi North 6.9 mph - N/A   Overcast
1:15 PM 52.9 °F - 38.8 °F 59% 30.09 in 10.0 mi NNE 4.6 mph - N/A   Overcast
1:35 PM 53.6 °F - 38.8 °F 57% 30.08 in 10.0 mi NE 5.8 mph - N/A   Overcast
1:36 PM 53.6 °F - 38.8 °F 57% 30.08 in 10.0 mi NE 5.8 mph - N/A   Overcast
1:55 PM 53.1 °F - 39.2 °F 59% 30.08 in 10.0 mi NNE 5.8 mph - N/A   Overcast
2:15 PM 53.2 °F - 39.6 °F 60% 30.08 in 10.0 mi NNE 6.9 mph - N/A   Overcast
2:35 PM 53.6 °F - 39.6 °F 59% 30.08 in 10.0 mi NE 4.6 mph - N/A   Overcast
2:55 PM 53.2 °F - 39.2 °F 59% 30.07 in 10.0 mi NNE 5.8 mph - N/A   Overcast
2:56 PM 53.2 °F - 39.2 °F 59% 30.07 in 10.0 mi NNE 5.8 mph - N/A   Overcast
3:15 PM 53.8 °F - 38.8 °F 57% 30.06 in 10.0 mi NNE 4.6 mph - N/A   Overcast
3:16 PM 53.8 °F - 39.0 °F 57% 30.06 in 10.0 mi NNE 4.6 mph - N/A   Overcast
3:35 PM 53.8 °F - 38.8 °F 57% 30.06 in 10.0 mi NE 5.8 mph - N/A   Overcast
3:55 PM 54.0 °F - 39.0 °F 57% 30.05 in 10.0 mi North 4.6 mph - N/A   Overcast
4:15 PM 54.5 °F - 38.7 °F 55% 30.04 in 10.0 mi ENE 4.6 mph - N/A   Overcast
4:16 PM 54.5 °F - 39.0 °F 56% 30.04 in 10.0 mi NE 5.8 mph - N/A   Overcast
4:35 PM 54.9 °F - 39.0 °F 55% 30.04 in 10.0 mi NNE 5.8 mph - N/A   Overcast
4:55 PM 54.7 °F - 38.7 °F 55% 30.04 in 10.0 mi ENE 4.6 mph - N/A   Overcast
5:15 PM 55.8 °F - 37.9 °F 51% 30.03 in 10.0 mi ESE 3.5 mph - N/A   Overcast
5:35 PM 54.9 °F - 38.3 °F 54% 30.04 in 10.0 mi Calm Calm - N/A   Overcast
5:36 PM 54.9 °F - 38.3 °F 54% 30.04 in 10.0 mi Calm Calm - N/A   Overcast
5:55 PM 54.9 °F - 37.6 °F 52% 30.03 in 10.0 mi NE 3.5 mph - N/A   Overcast
6:15 PM 54.9 °F - 37.6 °F 52% 30.04 in 10.0 mi Calm Calm - N/A   Overcast
6:35 PM 54.9 °F - 38.3 °F 54% 30.03 in 10.0 mi North 3.5 mph - N/A   Overcast
6:36 PM 54.9 °F - 38.5 °F 54% 30.03 in 10.0 mi North 4.6 mph - N/A   Overcast
6:55 PM 54.7 °F - 37.8 °F 53% 30.03 in 10.0 mi North 3.5 mph - N/A   Overcast
6:56 PM 54.7 °F - 37.8 °F 53% 30.03 in 10.0 mi North 3.5 mph - N/A   Overcast
7:15 PM 54.5 °F - 37.9 °F 54% 30.04 in 10.0 mi NNE 3.5 mph - N/A   Overcast
7:35 PM 53.8 °F - 38.1 °F 55% 30.04 in 10.0 mi North 4.6 mph - N/A   Overcast
7:55 PM 53.2 °F - 38.5 °F 57% 30.05 in 10.0 mi NNW 3.5 mph - N/A   Overcast
7:56 PM 53.2 °F - 38.3 °F 57% 30.05 in 10.0 mi NNW 3.5 mph - N/A   Overcast
8:15 PM 52.9 °F - 38.3 °F 58% 30.04 in 10.0 mi Calm Calm - N/A   Overcast
8:16 PM 52.9 °F - 38.3 °F 58% 30.04 in 10.0 mi Calm Calm - N/A   Overcast
8:35 PM 52.2 °F - 39.0 °F 61% 30.03 in 10.0 mi Calm Calm - N/A   Mostly Cloudy
8:55 PM 51.8 °F - 38.7 °F 61% 30.01 in 10.0 mi NNE 3.5 mph - N/A   Mostly Cloudy
8:56 PM 51.8 °F - 38.5 °F 60% 30.01 in 10.0 mi NNE 3.5 mph - N/A   Mostly Cloudy
9:15 PM 51.8 °F - 38.3 °F 60% 30.03 in 10.0 mi Calm Calm - N/A   Overcast
9:16 PM 51.8 °F - 38.3 °F 60% 30.03 in 10.0 mi Calm Calm - N/A   Overcast
9:35 PM 51.4 °F - 39.4 °F 63% 30.04 in 10.0 mi Calm Calm - N/A   Overcast
9:55 PM 49.8 °F - 41.9 °F 74% 30.05 in 10.0 mi West 3.5 mph - N/A   Overcast
10:15 PM 49.6 °F - 40.8 °F 72% 30.05 in 10.0 mi South 5.8 mph - N/A   Overcast
10:16 PM 49.5 °F - 41.0 °F 73% 30.05 in 10.0 mi South 4.6 mph - N/A   Overcast
10:35 PM 48.4 °F - 42.1 °F 79% 30.03 in 10.0 mi SSE 6.9 mph - N/A   Overcast
10:36 PM 48.4 °F - 41.9 °F 78% 30.03 in 10.0 mi SSE 6.9 mph - N/A   Overcast
10:55 PM 50.4 °F - 42.8 °F 75% 30.02 in 10.0 mi SSW 5.8 mph - N/A   Mostly Cloudy
11:15 PM 50.0 °F - 43.2 °F 77% 30.00 in 10.0 mi SE 4.6 mph - N/A   Overcast
11:35 PM 50.0 °F - 43.3 °F 78% 30.00 in 10.0 mi Calm Calm - N/A   Overcast
11:36 PM 50.0 °F - 43.3 °F 78% 30.00 in 10.0 mi Calm Calm - N/A   Overcast
11:55 PM 49.3 °F - 43.0 °F 79% 30.00 in 10.0 mi Calm Calm - N/A   Mostly Cloudy
11:56 PM 49.3 °F - 43.0 °F 79% 30.00 in 10.0 mi Calm Calm - N/A   Scattered Clouds